Location: Unspecified
(0.0000°N, 0.0000°E)
Time: 17:05:38
(UTC+00:00)

Envisat - Visible Passes

Search period start: 15 August 2018 00:00
Search period end: 25 August 2018 00:00
Orbit: 764 x 766 km, 98.2° (Epoch: 15 August)

Date Brightness Start Highest point End Pass type
(mag) Time Alt. Az. Time Alt. Az. Time Alt. Az.
15 Aug 3.9 18:53:51 13° SE 18:57:24 27° ENE 19:01:36 10° NNE visible
15 Aug 5.4 20:34:03 14° SW 20:36:09 18° WSW 20:39:29 10° WNW visible
16 Aug 3.7 19:56:53 25° SSW 19:59:32 50° WSW 20:04:25 10° NNW visible
17 Aug 3.0 19:19:42 22° SSE 19:22:54 56° ENE 19:27:51 10° N visible
18 Aug 4.3 18:42:39 10° ESE 18:46:16 20° ENE 18:49:52 10° NNE visible
18 Aug 5.0 20:22:44 18° SW 20:25:00 24° WSW 20:29:03 10° NW visible
19 Aug 3.2 19:45:34 26° S 19:48:23 69° WSW 19:53:26 10° NNW visible
20 Aug 3.4 19:08:24 18° SE 19:11:46 41° ENE 19:16:29 10° N visible
20 Aug 5.9 20:49:02 10° WSW 20:50:28 11° WSW 20:51:55 10° W visible
21 Aug 4.6 18:32:27 10° ESE 18:35:08 14° ENE 18:37:48 10° NE visible
21 Aug 4.5 20:11:25 21° SSW 20:13:53 32° WSW 20:18:22 10° NW visible
22 Aug 2.9 19:34:15 25° SSE 19:37:15 87° ENE 19:42:19 10° N visible
23 Aug 3.8 18:57:05 14° SE 19:00:37 30° ENE 19:05:00 10° NNE visible
23 Aug 5.6 20:37:17 13° SW 20:39:21 16° WSW 20:42:19 10° WNW visible
24 Aug 4.0 20:00:07 24° SSW 20:02:45 44° WSW 20:07:32 10° NNW visible
